Voltar ao catálogo

STARLINK-3697

AtivoComunicaçõesVLEO
NORAD 51962·PAYLOAD·🇺🇸 United States

Lançado Mar 9, 2022 de Cape Canaveral Space Force Station

Loading…

Próximas Passagens (próximas 24 horas)

TLE

AtualizadoSource: CelesTrak SupGP

Época: Sep 15, 2026, 02:21 UTC

1 51962C 22025G   26258.09840278 -.00072917  00000+0 -23451-2 0  2587
2 51962  53.1569 222.8318 0001387  91.9136  65.2525 15.31733692    14

Acompanhe STARLINK-3697 em tempo real com AllMySat

Download on the App Store